User: anonymous   Login
Location: Unspecified
(0.0000°N, 0.0000°E)
Time: 07:44:33
(UTC+00:00)
Language:

STARLINK-4589 - Orbit

View from above orbital plane
View from above orbital plane
View from above satellite
View from above satellite

Ground track
Ground track

The orbit is defined by the following mean orbital elements,

1 53746U          26145.66679325 +.00000000 +00000-0 +46855-4 0 00002
2 53746  53.2151 278.6005 0001437  69.8604 290.2542 15.08839399    09
Epoch (UTC): 25 May 2026 16:00:10
Eccentricity: 0.0001437
inclination: 53.2151°
perigee height: 539 km
apogee height: 541 km
right ascension of ascending node: 278.6005°
argument of perigee: 69.8604°
revolutions per day: 15.08839399
mean anomaly at epoch: 290.2542°

The dashed part of the orbit path shows where the satellite is in the earth's shadow,  

DLR